Weather History for KGCM - September, 2013

Change the Weather History Date:

Sunday, September 8, 2013

  Actual Average (KTUL) Record (KTUL)
Temperature  
Mean Temperature 82 °F 76 °F  
Max Temperature 96 °F 87 °F 103 °F (1925)
Min Temperature 68 °F 65 °F 50 °F (1956)
Degree Days  
Heating Degree Days 0 0  
Month to date heating degree days 0  
Since 1 July heating degree days 0  
Cooling Degree Days 17 11  
Month to date cooling degree days 101  
Year to date cooling degree days 1802  
Growing Degree Days 32 (Base 50)    
Moisture  
Dew Point 64 °F    
Average Humidity 58    
Maximum Humidity 88    
Minimum Humidity 30    
Precipitation  
Precipitation 0.00 in 0.14 in 5.70 in (2007)
Month to date precipitation 1.09  
Year to date precipitation 28.57  
Sea Level Pressure  
Sea Level Pressure 29.96 in    
Wind  
Wind Speed 5 mph (South)    
Max Wind Speed 15 mph    
Max Gust Speed 18 mph    
Visibility 10 miles    
Events      
T = Trace of Precipitation, MM = Missing Value Source: NWS Daily Summary

Daily Weather History Graph

Daily Weather History Graph

Search for Another Location

Airport or City:

Trip Planner

Search our weather history database for the weather conditions in past years. The results will help you decide how hot, cold, wet, or windy it might be!

Date:

Astronomy

Sep. 08, 2013 Rise Set
Actual Time 6:59 AM CDT 7:39 PM CDT
Civil Twilight 6:33 AM CDT 8:05 PM CDT
Nautical Twilight 6:02 AM CDT 8:35 PM CDT
Astronomical Twilight 5:30 AM CDT 9:07 PM CDT
Moon 10:10 AM CDT (9/8) 9:23 PM CDT (9/8)
Length of Visible Light 13h 32m
Length of Day
12h 40m
Waxing Crescent, 11% of the Moon is Illuminated
Sep 8
Waxing Crescent
Sep 12
First Quarter
Sep 19
Full
Sep 26
Last Quarter
Oct 4
New

Hourly Weather History & Observations

Time (CDT) Temp. Heat Index Dew Point Humidity Pressure Visibility Wind Dir Wind Speed Gust Speed Precip Events Conditions
12:15 AM 75.2 °F - 64.4 °F 69% 29.98 in 10.0 mi SE 4.6 mph - N/A   Clear
12:35 AM 75.2 °F - 64.4 °F 69% 29.98 in 10.0 mi Calm Calm - N/A   Clear
12:55 AM 73.4 °F - 64.4 °F 73% 29.98 in 10.0 mi Calm Calm - N/A   Clear
1:15 AM 73.4 °F - 64.4 °F 73% 29.98 in 10.0 mi SSE 5.8 mph - N/A   Clear
1:35 AM 73.4 °F - 64.4 °F 73% 29.98 in 10.0 mi SSE 6.9 mph - N/A   Clear
1:55 AM 73.4 °F - 64.4 °F 73% 29.97 in 10.0 mi SE 5.8 mph - N/A   Clear
2:15 AM 73.4 °F - 64.4 °F 73% 29.97 in 10.0 mi SSE 8.1 mph - N/A   Clear
2:35 AM 73.4 °F - 64.4 °F 73% 29.96 in 10.0 mi SSE 6.9 mph - N/A   Clear
2:55 AM 73.4 °F - 64.4 °F 73% 29.97 in 10.0 mi South 4.6 mph - N/A   Clear
3:15 AM 73.4 °F - 64.4 °F 73% 29.96 in 10.0 mi South 5.8 mph - N/A   Clear
3:35 AM 71.6 °F - 64.4 °F 78% 29.97 in 10.0 mi South 3.5 mph - N/A   Clear
3:55 AM 71.6 °F - 64.4 °F 78% 29.97 in 10.0 mi Calm Calm - N/A   Clear
4:15 AM 71.6 °F - 64.4 °F 78% 29.97 in 10.0 mi SSE 4.6 mph - N/A   Clear
4:35 AM 71.6 °F - 64.4 °F 78% 29.98 in 10.0 mi South 4.6 mph - N/A   Clear
4:55 AM 69.8 °F - 64.4 °F 83% 29.98 in 10.0 mi Calm Calm - N/A   Clear
5:15 AM 68.0 °F - 64.4 °F 88% 29.98 in 7.0 mi Calm Calm - N/A   Clear
5:35 AM 69.8 °F - 64.4 °F 83% 29.98 in 10.0 mi Calm Calm - N/A   Clear
5:55 AM 68.0 °F - 64.4 °F 88% 29.98 in 7.0 mi SSE 3.5 mph - N/A   Clear
6:15 AM 68.0 °F - 64.4 °F 88% 29.98 in 7.0 mi SSE 3.5 mph - N/A   Clear
6:35 AM 68.0 °F - 64.4 °F 88% 29.99 in 7.0 mi SSE 5.8 mph - N/A   Clear
6:55 AM 68.0 °F - 64.4 °F 88% 29.99 in 7.0 mi SSE 4.6 mph - N/A   Clear
7:15 AM 68.0 °F - 64.4 °F 88% 29.99 in 7.0 mi Calm Calm - N/A   Clear
7:35 AM 68.0 °F - 64.4 °F 88% 29.99 in 7.0 mi Calm Calm - N/A   Clear
7:55 AM 69.8 °F - 64.4 °F 83% 29.98 in 7.0 mi SSE 4.6 mph - N/A   Clear
8:15 AM 71.6 °F - 64.4 °F 78% 29.99 in 10.0 mi Calm Calm - N/A   Clear
8:35 AM 75.2 °F - 66.2 °F 73% 29.99 in 10.0 mi Calm Calm - N/A   Clear
8:55 AM 78.8 °F - 66.2 °F 65% 29.99 in 10.0 mi South 3.5 mph - N/A   Clear
9:15 AM 80.6 °F 82.3 °F 64.4 °F 58% 29.99 in 10.0 mi SSW 6.9 mph - N/A   Clear
9:35 AM 80.6 °F 82.3 °F 64.4 °F 58% 30.00 in 10.0 mi SW 4.6 mph - N/A   Clear
9:55 AM 82.4 °F 83.9 °F 64.4 °F 54% 30.00 in 10.0 mi SW 4.6 mph - N/A   Clear
10:15 AM 84.2 °F 85.6 °F 64.4 °F 51% 30.00 in 10.0 mi SW 6.9 mph - N/A   Clear
10:35 AM 86.0 °F 87.3 °F 64.4 °F 48% 30.00 in 10.0 mi SSW 5.8 mph - N/A   Clear
10:55 AM 87.8 °F 89.4 °F 64.4 °F 46% 30.00 in 10.0 mi WSW 6.9 mph - N/A   Clear
11:15 AM 87.8 °F 89.4 °F 64.4 °F 46% 30.00 in 10.0 mi SW 8.1 mph - N/A   Clear
11:35 AM 89.6 °F 91.1 °F 64.4 °F 43% 30.00 in 10.0 mi SW 8.1 mph - N/A   Clear
11:55 AM 91.4 °F 93.2 °F 64.4 °F 41% 30.00 in 10.0 mi SW 8.1 mph - N/A   Clear
12:15 PM 91.4 °F 93.2 °F 64.4 °F 41% 30.00 in 10.0 mi WSW 10.4 mph - N/A   Clear
12:35 PM 93.2 °F 94.1 °F 62.6 °F 36% 29.99 in 10.0 mi WSW 8.1 mph - N/A   Clear
12:55 PM 95.0 °F 96.0 °F 62.6 °F 34% 29.98 in 10.0 mi South 8.1 mph - N/A   Clear
1:15 PM 95.0 °F 96.0 °F 62.6 °F 34% 29.98 in 10.0 mi SSW 11.5 mph - N/A   Clear
1:35 PM 95.0 °F 96.0 °F 62.6 °F 34% 29.97 in 10.0 mi SSW 8.1 mph - N/A   Clear
1:55 PM 96.8 °F 98.0 °F 62.6 °F 32% 29.97 in 10.0 mi SSW 10.4 mph - N/A   Clear
2:15 PM 96.8 °F 97.1 °F 60.8 °F 30% 29.96 in 10.0 mi SW 6.9 mph - N/A   Clear
2:35 PM 95.0 °F 96.0 °F 62.6 °F 34% 29.95 in 10.0 mi SW 12.7 mph 16.1 mph N/A   Clear
2:55 PM 95.0 °F 96.0 °F 62.6 °F 34% 29.95 in 10.0 mi SW 15.0 mph 18.4 mph N/A   Clear
3:15 PM 96.8 °F 97.1 °F 60.8 °F 30% 29.95 in 10.0 mi SW 10.4 mph 18.4 mph N/A   Clear
3:35 PM 96.8 °F 98.0 °F 62.6 °F 32% 29.93 in 10.0 mi SW 6.9 mph 16.1 mph N/A   Clear
3:55 PM 96.8 °F 97.1 °F 60.8 °F 30% 29.93 in 10.0 mi SSW 9.2 mph - N/A   Clear
4:15 PM 96.8 °F 97.1 °F 60.8 °F 30% 29.93 in 10.0 mi South 10.4 mph - N/A   Clear
4:35 PM 95.0 °F 95.2 °F 60.8 °F 32% 29.93 in 10.0 mi South 10.4 mph - N/A   Clear
4:55 PM 95.0 °F 95.2 °F 60.8 °F 32% 29.92 in 10.0 mi SSW 11.5 mph - N/A   Clear
5:15 PM 95.0 °F 95.2 °F 60.8 °F 32% 29.92 in 10.0 mi SSW 9.2 mph - N/A   Clear
5:35 PM 95.0 °F 96.0 °F 62.6 °F 34% 29.92 in 10.0 mi South 11.5 mph - N/A   Clear
5:55 PM 93.2 °F 93.3 °F 60.8 °F 34% 29.92 in 10.0 mi SSW 8.1 mph - N/A   Clear
6:15 PM 91.4 °F 91.4 °F 60.8 °F 36% 29.92 in 10.0 mi SSW 9.2 mph - N/A   Clear
6:35 PM 91.4 °F 91.4 °F 60.8 °F 36% 29.91 in 10.0 mi SSW 10.4 mph - N/A   Clear
6:55 PM 89.6 °F 90.1 °F 62.6 °F 40% 29.91 in 10.0 mi SSW 8.1 mph - N/A   Clear
7:15 PM 87.8 °F 88.5 °F 62.6 °F 43% 29.91 in 10.0 mi SSW 6.9 mph - N/A   Clear
7:35 PM 84.2 °F 85.0 °F 62.6 °F 48% 29.91 in 10.0 mi South 5.8 mph - N/A   Clear
7:55 PM 82.4 °F 83.4 °F 62.6 °F 51% 29.92 in 10.0 mi South 5.8 mph - N/A   Clear
8:15 PM 80.6 °F 81.8 °F 62.6 °F 54% 29.93 in 10.0 mi South 4.6 mph - N/A   Clear
8:35 PM 78.8 °F - 62.6 °F 57% 29.92 in 10.0 mi South 5.8 mph - N/A   Clear
8:55 PM 78.8 °F - 62.6 °F 57% 29.93 in 10.0 mi SSE 5.8 mph - N/A   Clear
9:15 PM 78.8 °F - 64.4 °F 61% 29.93 in 10.0 mi SSE 4.6 mph - N/A   Clear
9:35 PM 77.0 °F - 64.4 °F 65% 29.95 in 10.0 mi SSE 4.6 mph - N/A   Clear
9:55 PM 77.0 °F - 64.4 °F 65% 29.95 in 10.0 mi Calm Calm - N/A   Clear
10:15 PM 73.4 °F - 64.4 °F 73% 29.95 in 10.0 mi SSE 3.5 mph - N/A   Clear
10:35 PM 77.0 °F - 64.4 °F 65% 29.96 in 10.0 mi SSE 4.6 mph - N/A   Clear
10:55 PM 73.4 °F - 64.4 °F 73% 29.96 in 10.0 mi SE 3.5 mph - N/A   Clear
11:15 PM 73.4 °F - 64.4 °F 73% 29.96 in 10.0 mi Calm Calm - N/A   Clear
11:35 PM 71.6 °F - 64.4 °F 78% 29.96 in 10.0 mi Calm Calm - N/A   Clear
11:55 PM 71.6 °F - 64.4 °F 78% 29.95 in 10.0 mi Calm Calm - N/A   Clear